{"data":{"norad_id":60516,"epoch":"2026-09-19T11:30:20.249856Z","epoch_age_seconds":102665,"freshness":"FRESH","line1":"1 60516U 24149BA  26262.47940104  .00024327  00000+0  56310-3 0  9990","line2":"2 60516  97.3734 346.9881 0002310 326.0052  34.1047 15.42453623116794","mean_motion":15.42453623,"eccentricity":0.000231,"inclination_deg":97.3734,"raan_deg":346.9881,"arg_perigee_deg":326.0052,"mean_anomaly_deg":34.1047,"bstar":0.0005631,"rev_number":11679,"period_min":93.357750179825,"perigee_km":437.29565954082,"apogee_km":440.44511695419,"semimajor_km":6817.0073882475,"source":"CELESTRAK","updated_at":"2026-09-20T09:00:34.715545Z"}}